Location: Unspecified
(0.0000°N, 0.0000°E)
Time: 23:19:20
(UTC+00:00)

SRMSAT - Pass Details

Date: 20 July 2019
Orbit: 848 x 866 km, 20.0° (Epoch: 16 August)

Event Time Altitude Azimuth Distance (km) Brightness Sun altitude
Rises 19:37:14 0° 275° (W) 3,429 ? -21.2°
Reaches altitude 10° 19:40:15 10° 288° (WNW) 2,490 ? -21.9°
Maximum altitude 19:45:06 25° 343° (NNW) 1,656 ? -23.0°
Drops below altitude 10° 19:49:56 10° 37° (NE) 2,483 ? -24.1°
Enters shadow 19:50:16 - 39° (NE) 2,581 ? -24.2°
